Location: Cerda�ola
(41.4919°N, 2.1403°E)
Time: 02:56:09
(UTC+00:00)

Cosmos 1943 Rocket - Pass Details

Date: 29 March 2020
Orbit: 811 x 844 km, 71.0° (Epoch: 31 May)

Event Time Altitude Azimuth Distance (km) Brightness Sun altitude
Rises 20:14:10 0° 338° (NNW) 3,350 6.1 -22.3°
Reaches altitude 10° 20:16:37 10° 341° (NNW) 2,418 5.2 -22.7°
Maximum altitude 20:22:08 69° 64° (ENE) 878 2.1 -23.6°
Enters shadow 20:22:57 60° 114° (ESE) 941 2.1 -23.8°
